TimeEST,TemperatureF,Dew PointF,Humidity,Sea Level PressureIn,VisibilityMPH,Wind Direction,Wind SpeedMPH,Gust SpeedMPH,PrecipitationIn,Events,Conditions,WindDirDegrees,DateUTC
12:54 AM,30.0,25.0,82,30.06,10.0,Calm,Calm,-,N/A,,Clear,0,2012-12-28 05:54:00
1:54 AM,28.9,24.1,82,30.09,10.0,Calm,Calm,-,N/A,,Clear,0,2012-12-28 06:54:00
2:54 AM,30.0,24.1,79,30.09,10.0,Calm,Calm,-,N/A,,Clear,0,2012-12-28 07:54:00
3:54 AM,30.9,24.1,76,30.09,10.0,Calm,Calm,-,N/A,,Clear,0,2012-12-28 08:54:00
4:54 AM,28.0,23.0,81,30.11,10.0,Calm,Calm,-,N/A,,Clear,0,2012-12-28 09:54:00
6:54 AM,27.0,23.0,85,30.13,10.0,Calm,Calm,-,N/A,,Clear,0,2012-12-28 11:54:00
7:54 AM,28.0,24.1,85,30.15,10.0,Calm,Calm,-,N/A,,Clear,0,2012-12-28 12:54:00
8:54 AM,32.0,25.0,75,30.18,10.0,Calm,Calm,-,N/A,,Clear,0,2012-12-28 13:54:00
9:54 AM,37.9,27.0,65,30.18,10.0,Variable,3.5,-,N/A,,Clear,0,2012-12-28 14:54:00
10:54 AM,39.9,26.1,58,30.19,10.0,NE,4.6,-,N/A,,Clear,40,2012-12-28 15:54:00
12:54 PM,43.0,27.0,53,30.13,10.0,WNW,3.5,-,N/A,,Clear,300,2012-12-28 17:54:00
1:54 PM,44.1,27.0,51,30.12,10.0,SW,4.6,-,N/A,,Clear,220,2012-12-28 18:54:00
2:54 PM,46.0,28.0,50,30.10,10.0,West,4.6,-,N/A,,Clear,270,2012-12-28 19:54:00
3:54 PM,45.0,28.0,52,30.11,10.0,Calm,Calm,-,N/A,,Clear,0,2012-12-28 20:54:00
4:54 PM,42.1,28.9,60,30.10,10.0,Calm,Calm,-,N/A,,Clear,0,2012-12-28 21:54:00
5:54 PM,37.0,30.9,79,30.08,10.0,Calm,Calm,-,N/A,,Clear,0,2012-12-28 22:54:00
6:54 PM,36.0,30.0,79,30.07,10.0,Calm,Calm,-,N/A,,Clear,0,2012-12-28 23:54:00
7:54 PM,35.1,30.0,82,30.09,10.0,Calm,Calm,-,N/A,,Clear,0,2012-12-29 00:54:00
8:54 PM,34.0,30.0,85,30.11,9.0,Calm,Calm,-,N/A,,Clear,0,2012-12-29 01:54:00
9:54 PM,34.0,30.0,85,30.11,9.0,Calm,Calm,-,N/A,,Clear,0,2012-12-29 02:54:00
10:54 PM,34.0,30.0,85,30.08,8.0,Calm,Calm,-,N/A,,Clear,0,2012-12-29 03:54:00
11:54 PM,34.0,30.9,89,30.06,7.0,Calm,Calm,-,N/A,,Mostly Cloudy,0,2012-12-29 04:54:00